Zurück zum Katalog

STARLINK-1255

AktivKommunikationVLEO
NORAD 45399·PAYLOAD·🇺🇸 United States

Gestartet Mar 18, 2020 von Cape Canaveral Space Force Station

Loading…

Nächste Überflüge (nächste 24 Stunden)

TLE

AktuellSource: CelesTrak SupGP

Epoche: Sep 14, 2026, 20:41 UTC

1 45399C 20019AR  26257.86229167  .00123150  00000+0  76774-3 0  2577
2 45399  53.0307 253.5585 0005878  65.1513 268.8771 15.76136669    12

Verfolge STARLINK-1255 in Echtzeit mit AllMySat

Download on the App Store